This is the latest recevied weather packets stored in our database for station/object EA2ESA-13. If no packets are shown the sender has not sent any weather packets the latest 10 day(s).
| Time | Temp. | Humidity | Pressure | Rain* | Wind** | Luminosity | Snow |
|---|---|---|---|---|---|---|---|
| 1777818534 | 20° C | 68% | 1016.9 hPa | 0 mm | 0 m/s | - | - |
| 1777817933 | 20° C | 68% | 1016.9 hPa | 0 mm | 0 m/s | - | - |
| 1777817333 | 20° C | 71% | 1017.1 hPa | 0 mm | 0 m/s | - | - |
| 1777816732 | 19.44° C | 73% | 1017.1 hPa | 0 mm | 0 m/s | - | - |
| 1777816131 | 19.44° C | 72% | 1017.3 hPa | 0 mm | 0 m/s | - | - |
| 1777815530 | 19.44° C | 70% | 1017.4 hPa | 0 mm | 0 m/s | - | - |
| 1777814929 | 20.56° C | 69% | 1017.5 hPa | 0 mm | 0 m/s | - | - |
| 1777814328 | 21.11° C | 67% | 1017.3 hPa | 0 mm | 0 m/s | - | - |
| 1777755964 | 17.78° C | 77% | 1018.4 hPa | 0 mm | 0 m/s | - | - |
| 1777754161 | 17.78° C | 78% | 1018.2 hPa | 0 mm | 0 m/s | - | - |
| 1777753560 | 17.78° C | 78% | 1018 hPa | 0 mm | 0 m/s | - | - |
| 1777752958 | 17.78° C | 78% | 1017.9 hPa | 0 mm | 0 m/s | - | - |
| 1777752358 | 17.78° C | 78% | 1017.9 hPa | 0 mm | 0 m/s | - | - |
| 1777751757 | 17.78° C | 79% | 1018 hPa | 0 mm | 0 m/s | - | - |
| 1777751156 | 17.78° C | 79% | 1018.2 hPa | 0 mm | 0 m/s | - | - |
| 1777750555 | 18.33° C | 79% | 1018.3 hPa | 0 mm | 0 m/s | - | - |
| 1777749953 | 18.33° C | 79% | 1018.4 hPa | 0 mm | 0 m/s | - | - |
| 1777749353 | 18.33° C | 78% | 1018.5 hPa | 0 mm | 0 m/s | - | - |
| 1777748752 | 18.33° C | 77% | 1018.6 hPa | 0 mm | 0 m/s | - | - |
| 1777748151 | 18.33° C | 76% | 1018.7 hPa | 0 mm | 0 m/s | - | - |
| 1777747550 | 18.33° C | 75% | 1018.4 hPa | 0 mm | 0 m/s | - | - |
| 1777746948 | 18.33° C | 75% | 1018.4 hPa | 0 mm | 0 m/s | - | - |
| 1777746347 | 18.89° C | 74% | 1018.3 hPa | 0 mm | 0 m/s | - | - |
| 1777745746 | 18.89° C | 74% | 1018.2 hPa | 0 mm | 0 m/s | - | - |
| 1777745146 | 18.89° C | 74% | 1018.4 hPa | 0 mm | 0 m/s | - | - |
* Rain latest hour (hover to see other rain measurements)
** Current wind speed in m/s (hover to see current wind gust speed)